This demonstration page uses our WeatherBlox Daily Observations layout. Learn more.

Left ArrowRight Arrow

Hourly Observations for June 16, 2021

Temp ( °F °C ) Dew Point ( °F °C ) Humidity (%) Winds ( mph kmh ) Pressure ( in mb ) Visibility ( mi km ) Precip ( " mm )
12:56 am 00:56 Clear 76 24.4 68 20 77 77 SE 8 13 29.97 1015 10 16 0.00 0.00
1:56 am 01:56 Clear 73 22.8 68 20 84 84 ESE 7 11 29.96 1015 10 16 0.00 0.00
2:56 am 02:56 Clear 71 21.7 67 19.4 87 87 SSE 5 7 29.96 1015 10 16 0.00 0.00
3:56 am 03:56 Clear 70 21.1 66 18.9 87 87 SSE 6 9 29.95 1014 10 16 0.00 0.00
4:56 am 04:56 Clear 69 20.6 64 17.8 84 84 SSE 3 6 29.95 1014 10 16 0.00 0.00
5:56 am 05:56 Clear 70 21.1 62 16.7 76 76 SSW 7 11 29.94 1014 10 16 0.00 0.00
6:56 am 06:56 Sunny 71 21.7 61 16.1 71 71 SSW 7 11 29.95 1014 10 16 0.00 0.00
7:56 am 07:56 Sunny 74 23.3 63 17.2 69 69 S 7 11 29.95 1014 10 16 0.00 0.00
8:56 am 08:56 Sunny 80 26.7 64 17.8 58 58 S 9 15 29.95 1014 10 16 0.00 0.00
9:56 am 09:56 Sunny 85 29.4 65 18.3 51 51 SSW 13 20 29.94 1014 10 16 0.00 0.00
10:56 am 10:56 Sunny 90 32.2 65 18.3 44 44 SSW 20 31 29.93 1013 9 14 0.00 0.00
11:56 am 11:56 Sunny 93 33.9 65 18.3 40 40 SSW 20 31 29.92 1013 10 16 0.00 0.00
12:56 pm 12:56 Sunny 96 35.6 63 17.2 34 34 S 17 28 29.91 1013 10 16 0.00 0.00
1:56 pm 13:56 Sunny 98 36.7 62 16.7 31 31 S 21 33 29.88 1012 10 16 0.00 0.00
2:56 pm 14:56 Sunny 99 37.2 58 14.4 26 26 S 18 30 29.87 1012 10 16 0.00 0.00
3:56 pm 15:56 Sunny 100 37.8 59 15 26 26 S 21 33 29.87 1012 10 16 0.00 0.00
4:56 pm 16:56 Sunny 100 37.8 59 15 26 26 S 18 30 29.85 1011 10 16 0.00 0.00
5:56 pm 17:56 Sunny 99 37.2 61 16.1 29 29 SSW 17 28 29.85 1011 10 16 0.00 0.00
6:56 pm 18:56 Sunny 97 36.1 63 17.2 33 33 S 13 20 29.83 1010 10 16 0.00 0.00
7:56 pm 19:56 Sunny 93 33.9 63 17.2 37 37 S 12 19 29.83 1010 10 16 0.00 0.00
8:56 pm 20:56 Sunny 86 30 63 17.2 46 46 S 10 17 29.85 1011 10 16 0.00 0.00
9:56 pm 21:56 Clear 85 29.4 61 16.1 45 45 S 13 20 29.85 1011 10 16 0.00 0.00
10:56 pm 22:56 Clear 85 29.4 59 15 42 42 S 15 24 29.85 1011 10 16 0.00 0.00
11:56 pm 23:56 Clear 84 28.9 59 15 43 43 S 15 24 29.83 1010 10 16 0.00 0.00

Powered by AerisWeather